Regional Weather Roundup
Issued by NWS

Home | Current Version | Previous Version | Text Only | Print | Product List | Glossary Off
Versions: 1 2 3 4 5 6 7 8 9 10 11 12 13 14 15 16 17 18 19 20 21 22 23 24 25 26 27 28 29 30 31 32 33 34 35 36 37 38 39 40 41 42 43 44 45 46 47 48 49 50

000
ASUS43 KMPX 090301
RWRMN
WEATHER ROUNDUP FOR MINNESOTA
NATIONAL WEATHER SERVICE TWIN CITIES/CHANHASSEN MN
900 PM CST THU DEC 08 2016


NOTE: "FAIR" INDICATES FEW OR NO CLOUDS BELOW 12,000 FEET WITH NO
SIGNIFICANT WEATHER AND/OR OBSTRUCTIONS TO VISIBILITY. N/A MEANS
CURRENT SKY AND/OR WEATHER CONDITIONS ARE NOT AVAILABLE.

MNZ060>063-068>070-090400-
   Twin Cities Metro

CITY           SKY/WX    TMP DP  RH WIND       PRES   REMARKS
TWIN CITIES    FLURRIES  20  11  68 NW9       30.49R WCI   9
ST PAUL        PTCLDY    19  12  74 NW9       30.50R WCI   8
CRYSTAL        CLOUDY    20   9  62 NW12      30.48R WCI   8
BLAINE         PTCLDY    19  12  73 W9        30.47R WCI   9
LAKEVILLE      FLURRIES  18  16  93 W9        30.48R WCI   6
EDEN PRAIRIE   CLOUDY    20  11  68 NW15      30.48R WCI   6
SOUTH ST PAUL  MOCLDY    21  12  68 W7        30.49R WCI  12
LAKE ELMO      FAIR      19  14  79 NW8       30.48R WCI   9
$$
MNZ001>005-007-008-013>017-022>024-027-028-090400-
   Northwest Minnesota

CITY           SKY/WX    TMP DP  RH WIND       PRES   REMARKS
BEMIDJI        FLURRIES  11   8  87 W10       30.46S WCI  -2
HALLOCK        CLOUDY     9   3  78 N7        30.57S WCI  -3
ROSEAU         CLEAR      1  -2  85 NW7       30.52S WCI -11
WARROAD        CLEAR      3   0  85 NW12      30.51R WCI -13
THIEF RVR FALL CLEAR      3   0  87 NW9       30.54S WCI -12
CROOKSTON      FLURRIES   7   3  85 N9        30.58S WCI  -7
FOSSTON        LGT SNOW   7   5  92 W6        30.51S WCI  -3
DETROIT LAKES  LGT SNOW  12   9  85 NW9       30.52S WCI   0
MOORHEAD       MIX PCPN   5   0  78 NW14      30.59S WCI -12
PARK RAPIDS    CLOUDY    11   5  77 NW9       30.47R WCI  -2
$$
MNZ006-009>011-018-025>026-090400-
   North Central Minnesota

CITY           SKY/WX    TMP DP  RH WIND       PRES   REMARKS
BAUDETTE       FLURRIES  12   6  77 W12       30.45S WCI  -2
FLAG ISLAND    CLOUDY     9   7  92 NW17      30.47S WCI -10
INTL FALLS     CLOUDY    11   5  77 NW8       30.42F WCI  -1
WASKISH        CLOUDY    14  10  85 NW12      30.46S WCI   0
BIG FORK       FLURRIES  14  10  85 NW5       30.43S WCI   6
LONGVILLE      CLOUDY    14  10  85 NW5       30.44F WCI   6
GRAND RAPIDS   FLURRIES  14   9  80 N12       30.44F WCI   0
CRANE LAKE     FLURRIES  12   9  85 N10       30.42S WCI  -1
ORR            FLURRIES  12   7  79 NW9       30.38R WCI   0
COOK           FLURRIES  12   9  85 W7        30.40R WCI   2
$$
MNZ012-019>021-037-090400-
   Northeast Minnesota

CITY           SKY/WX    TMP DP  RH WIND       PRES   REMARKS
DULUTH         FLURRIES  17   9  70 NW14G23   30.37R WCI   3
ELY            CLEAR     10   9  92 N3        30.36S
HIBBING        MOCLDY    11   5  77 NW15      30.40S WCI  -5
EVELETH        CLOUDY    17  10  71 NW12G17   30.39S WCI   5
DULUTH HARBOR  FLURRIES  21  12  68 NW3G17    30.44R
TWO HARBORS    MOCLDY    19  14  79 CALM      30.37R HAZE
SILVER BAY     CLOUDY    18  10  73 NW5G16    30.36S WCI  11
GRAND MARAIS     N/A     18   7  62 VRB3      30.38R
G MARAIS ARPRT CLOUDY    10   1  67 NW14G20   30.27S WCI  -5
$$
MNZ029>031-032-039>041-046>048-054>057-064-090400-
   West Central Minnesota

CITY           SKY/WX    TMP DP  RH WIND       PRES   REMARKS
FERGUS FALLS   FLURRIES   3   0  85 NW15      30.62R WCI -15
WHEATON        PTCLDY     7   1  78 W10       30.61F WCI  -8
MORRIS         FLURRIES   7   1  78 NW14      30.56S WCI -10
ALEXANDRIA     CLOUDY     9   6  88 NW13      30.51R WCI  -7
ELBOW LAKE     FLURRIES   5   2  87 NW13      30.56S WCI -11
WADENA         FLURRIES  10   7  85 W9        30.49R WCI  -2
GLENWOOD       CLOUDY    10   7  85 W14       30.52R WCI  -5
APPLETON       CLOUDY     9   3  78 NW15      30.59S WCI  -8
BENSON         CLOUDY     7   3  85 N12       30.57R WCI  -9
ORTONVILLE     CLEAR      7   0  72 NW10G17   30.59S WCI  -8
MADISON        CLEAR     10   5  79 NW10      30.60S WCI  -3
WILLMAR        FLURRIES  12   9  85 NW13G18   30.56R WCI  -3
$$
MNZ033>034-036-042>043-049>051-058-059-090400-
   Central Minnesota

CITY           SKY/WX    TMP DP  RH WIND       PRES   REMARKS
ST CLOUD       CLEAR     14   9  80 NW10      30.49R WCI   1
PAYNESVILLE    CLEAR     11  10  94 W9        30.52R WCI  -2
AITKIN         MOCLDY    16   9  73 CALM      30.44R
PINE RIVER     MOCLDY    12  10  92 NW5       30.48S WCI   4
BRAINERD       CLEAR     15  10  80 W7        30.46S WCI   5
STAPLES        MOCLDY     9   7  92 W8        30.48S WCI  -4
LONG PRAIRIE   FAIR      10   7  85 W6        30.50R WCI   1
LITTLE FALLS   CLEAR     12   9  85 NW7       30.49R WCI   2
LITCHFIELD     MOCLDY    14  10  85 NW7G18    30.52R WCI   4
BUFFALO        CLOUDY    18  11  74 W9        30.51R WCI   6
MAPLE LAKE     CLOUDY    18  13  82 W8        30.51R WCI   7
HUTCHINSON     MOCLDY    14  10  85 W13       30.53S WCI   0
$$
MNZ037-044-045-052-053-090400-
   East Central Minnesota

CITY           SKY/WX    TMP DP  RH WIND       PRES   REMARKS
PRINCETON      PTCLDY    16  10  79 W8        30.48R WCI   5
MORA           MOCLDY    18  12  79 NW6       30.47R WCI   9
CAMBRIDGE      FLURRIES  19  10  68 W7        30.45R WCI  10
RUSH CITY      CLEAR     16  12  86 W5        30.46R WCI   9
MOOSE LAKE     MOCLDY    18  10  73 NW5       30.42R WCI  11
HINCKLEY       FAIR      18  14  86 NW5       30.44R WCI  11
CLOQUET        FLURRIES  18   9  68 NW13G24   30.40R WCI   4
MCGREGOR       CLEAR     16  10  79 NW7       30.44S WCI   6
$$
MNZ071>073-080-081-089-090-097-098-090400-
   Southwest Minnesota

CITY           SKY/WX    TMP DP  RH WIND       PRES   REMARKS
MONTEVIDEO     CLOUDY     9   5  85 N10       30.60S WCI  -6
GRANITE FALLS  PTCLDY    11   6  82 NW12      30.60S WCI  -3
CANBY          CLEAR     10   5  82 NW8       30.60S WCI  -3
MARSHALL       CLEAR      9   4  80 NW12      30.58S WCI  -6
REDWOOD FALLS  CLOUDY    13   6  74 NW13G21   30.56S WCI  -2
OLIVIA         FLURRIES  12   9  85 NW17      30.55R WCI  -5
PIPESTONE      CLEAR      9   5  85 NW13      30.54S WCI  -7
WINDOM         FLURRIES  12   9  85 NW16G25   30.53S WCI  -4
WORTHINGTON    CLEAR      9   5  84 NW13      30.55R WCI  -7
JACKSON        FLURRIES  12   9  85 NW18G25   30.53S WCI  -5
TRACY          CLEAR     11   7  84 NW13G18   30.56S WCI  -4
SLAYTON        CLEAR      9   6  87 NW13      30.54S WCI  -7
$$
MNZ065>067-074>077-082>085-091>093-090400-
   South Central Minnesota

CITY           SKY/WX    TMP DP  RH WIND       PRES   REMARKS
MANKATO        FLURRIES  14  10  84 NW16      30.52S WCI  -2
NEW ULM        FLURRIES  12   9  85 NW14      30.55R WCI  -3
ST JAMES       FLURRIES  12   9  85 NW16      30.56S WCI  -4
GLENCOE        FLURRIES  17  14  85 W12       30.51S WCI   5
OWATONNA       FLURRIES  16  10  79 W15       30.49R WCI   1
WASECA         FLURRIES  18  12  79 W16       30.51S WCI   3
ALBERT LEA     FLURRIES  18  14  86 NW9G16    30.49R WCI   6
$$
MNZ078>079-086>088-094>096-090400-
   Southeast Minnesota

CITY           SKY/WX    TMP DP  RH WIND       PRES   REMARKS
ROCHESTER      CLOUDY    18  13  80 NW16      30.44R WCI   3
RED WING       CLOUDY    21  12  68 W6        30.46R WCI  14
STANTON        CLOUDY    20  16  82 W7        30.47S WCI  11
DODGE CENTER   LGT SNOW  16  12  86 NW12G18   30.45S WCI   3
WINONA         CLOUDY    23  16  74 NW9       30.46S WCI  13
AUSTIN         FLURRIES  16  10  79 W12       30.47R WCI   3
PRESTON        FLURRIES  17  13  83 W13       30.44R WCI   4
$$
ABBREVIATIONS USED IN REMARKS
   TC - TEMPERATURES IN CELSIUS
  WCI - WIND CHILL INDEX
   HX - HEAT INDEX
  VSB - VISIBILITY
$$




USA.gov is the U.S. government's official web portal to all federal, state and local government web resources and services.